(344078) = 1998 QB29

Discovered at Ondrejov on 1998-08-25 by L. Sarounova.

Orbit

Orbit type: Main Belt

Note: WebGL enabled browser required.

epoch2024-03-31.0
epoch JD2460400.5
perihelion date2023-06-22.29873
perihelion JD2460117.79873
argument of perihelion (°)126.65956
ascending node (°)201.75293
inclination (°)7.54098
eccentricity0.2184874
perihelion distance (AU)1.8198788
Tisserand w.r.t. Jupiter3.5
ΔV w.r.t. Earth (km/sec)8.7
semimajor axis (AU)2.3286621
mean anomaly (°)78.41012
mean daily motion (°/day)0.27736030
aphelion distance (AU)2.837
period (years)3.55
P-vector [x]0.84926986
P-vector [y]-0.51654176
P-vector [z]-0.10920309
Q-vector [x]0.52571399
Q-vector [y]0.80831654
Q-vector [z]0.26504561
absolute magnitude17.58
phase slope0.15
uncertainty0
referenceE2024-GL3
observations used366
oppositions12
arc length (days)10827
first opposition used1994
last opposition used2024
residual rms (arc-secs)0.63
perturbers coarse indicatorM-v
perturbers precise indicator003Ek
first observation date used1994-05-15.0
last observation date used2024-01-05.0
computer nameMPCLINUX
JD of orbit computation2456238.334952
perihelion JD uncertainty (days)8.5607E-05
argument of perihelion uncertainty (°)1.0140E-04
ascending node uncertainty (°)9.7828E-05
inclination uncertainty (°)1.0251E-05
eccentricity uncertainty 1.0999E-07
perihelion distance uncertainty (AU)2.5820E-07
Minimum Orbit Intersection Distances (in AU)
for orbit epoch: 2460400.5, reference: E2024-GL3
Mercury1.42252
Venus1.10744
Earth0.82117
Mars0.48195
Jupiter2.55427
Saturn6.38301
Uranus15.6348
Neptune27.4572

Observations

376 total observations over interval: 1994 05 15.24352 – 2024 01 05.267569
These data are available for download (format description).

Date (UT) J2000 RA J2000 Dec Magn Location Ref
1994 05 15.24352 15 35 16.24 -11 46 42.2   691 – Steward Observatory, Kitt Peak-Spacewatch MPS 149126
1994 05 15.31059 15 35 12.13 -11 46 11.4 20.3 V 691 – Steward Observatory, Kitt Peak-Spacewatch MPS 149126
1994 05 15.37670 15 35 08.09 -11 45 41.6   691 – Steward Observatory, Kitt Peak-Spacewatch MPS 149126
1998 08 24.30235 22 36 56.13 +04 12 00.2 19.3   704 – Lincoln Laboratory ETS, New Mexico MPS 2019
1998 08 24.31878 22 36 55.43 +04 11 53.2 19.4   704 – Lincoln Laboratory ETS, New Mexico MPS 2019
1998 08 24.33518 22 36 54.76 +04 11 44.3 19.7   704 – Lincoln Laboratory ETS, New Mexico MPS 2019
1998 08 24.35159 22 36 53.99 +04 11 35.8 19.7   704 – Lincoln Laboratory ETS, New Mexico MPS 2019
1998 08 25.95441 22 35 52.88 +03 57 59.2   557 – Ondrejov MPS 2019
1998 08 25.97689 22 35 52.00 +03 57 47.3 19.2 V 557 – Ondrejov MPS 2019
1998 08 27.98109 22 34 33.96 +03 39 49.8 18.9 V 557 – Ondrejov MPS 2019
1998 08 27.98907 22 34 33.62 +03 39 45.4   557 – Ondrejov MPS 2019
1998 08 31.89282 22 32 00.50 +03 01 59.4   557 – Ondrejov MPS 2019
1998 08 31.89480 22 32 00.40 +03 01 58.4   557 – Ondrejov MPS 2019
1998 08 31.89876 22 32 00.17 +03 01 56.1   557 – Ondrejov MPS 2019
1998 09 15.30884 22 23 37.71 +00 23 46.8 18.7 R 699 – Lowell Observatory-LONEOS MPS 54315
1998 09 15.33840 22 23 36.73 +00 23 27.4   699 – Lowell Observatory-LONEOS MPS 54316
1998 09 15.36323 22 23 36.11 +00 23 10.8   699 – Lowell Observatory-LONEOS MPS 54316
2005 07 29.28821 20 29 39.48 -02 31 16.5 18.6   644 – Palomar Mountain/NEAT MPS 149126
2005 07 29.32191 20 29 37.80 -02 31 24.5 18.6   644 – Palomar Mountain/NEAT MPS 149126
2005 07 29.37974 20 29 34.91 -02 31 38.5 18.8   644 – Palomar Mountain/NEAT MPS 149126
2005 08 24.19420 20 13 39.16 -05 26 46.8 18.9   644 – Palomar Mountain/NEAT MPS 149126
2005 08 24.22922 20 13 38.39 -05 27 04.7 18.7   644 – Palomar Mountain/NEAT MPS 149126
2005 08 24.25384 20 13 37.85 -05 27 17.1 19.0   644 – Palomar Mountain/NEAT MPS 149126
2009 11 09.35189 03 50 09.06 +12 49 37.3 19.9 V 703 – Catalina Sky Survey MPS 302081
2009 11 09.35839 03 50 08.62 +12 49 33.9 19.9 V 703 – Catalina Sky Survey MPS 302081
2009 11 09.36501 03 50 08.19 +12 49 30.5 19.6 V 703 – Catalina Sky Survey MPS 302081
2009 11 09.37163 03 50 07.76 +12 49 27.8 19.6 V 703 – Catalina Sky Survey MPS 302081
2009 11 25.28561 03 33 43.88 +11 01 35.4 19.7 V G96 – Mt. Lemmon Survey MPS 304730
2009 11 25.29106 03 33 43.56 +11 01 33.5 19.6 V G96 – Mt. Lemmon Survey MPS 304730
2009 11 25.29693 03 33 43.20 +11 01 31.4 19.6 V G96 – Mt. Lemmon Survey MPS 304730
2009 11 25.30250 03 33 42.87 +11 01 29.7 19.4 V G96 – Mt. Lemmon Survey MPS 304730
2010 02 07.880733 03 34 18.773 +11 49 16.93   C51 – WISE MPS 927078
2010 02 07.946821 03 34 22.433 +11 49 37.49   C51 – WISE MPS 927078
2010 02 08.211557 03 34 37.354 +11 50 55.46   C51 – WISE MPS 927078
2010 02 08.277772 03 34 40.925 +11 51 14.80   C51 – WISE MPS 927078
2010 02 08.674685 03 35 03.456 +11 53 08.41   C51 – WISE MPS 927078
2011 02 04.46150 10 38 38.451 -00 34 40.45 22.1 w F51 – Pan-STARRS 1, Haleakala MPS 379654
2011 02 04.47575 10 38 37.800 -00 34 36.90 22.1 w F51 – Pan-STARRS 1, Haleakala MPS 379654
2011 02 04.49022 10 38 37.074 -00 34 32.72 22.4 w F51 – Pan-STARRS 1, Haleakala MPS 379654
2011 02 04.50471 10 38 36.436 -00 34 29.84 22.0 w F51 – Pan-STARRS 1, Haleakala MPS 379654
2012 08 08.34400 18 15 57.626 -09 17 06.73 20.2 g F51 – Pan-STARRS 1, Haleakala MPS 429021
2012 08 08.35431 18 15 57.562 -09 17 09.99 20.1 g F51 – Pan-STARRS 1, Haleakala MPS 429021
2012 08 08.37546 18 15 57.413 -09 17 16.76 19.9 r F51 – Pan-STARRS 1, Haleakala MPS 429021
2012 11 06.212287 20 13 10.727 -13 57 45.51 21.4 w F51 – Pan-STARRS 1, Haleakala MPS 439424
2012 11 06.216926 20 13 11.331 -13 57 44.74 21.4 w F51 – Pan-STARRS 1, Haleakala MPS 439424
2012 11 06.221561 20 13 11.908 -13 57 43.90 21.5 w F51 – Pan-STARRS 1, Haleakala MPS 439424
2012 11 06.226212 20 13 12.491 -13 57 43.22 21.2 w F51 – Pan-STARRS 1, Haleakala MPS 439424
2015 03 29.48751 13 03 07.079 -08 28 52.11 20.8 i F51 – Pan-STARRS 1, Haleakala MPS 597567
2015 03 29.49970 13 03 06.389 -08 28 45.96 20.7 i F51 – Pan-STARRS 1, Haleakala MPS 597567
2015 03 29.51160 13 03 05.758 -08 28 40.30 20.6 i F51 – Pan-STARRS 1, Haleakala MPS 597567
2015 03 29.52351 13 03 05.107 -08 28 34.39 20.8 i F51 – Pan-STARRS 1, Haleakala MPS 597567
2015 04 10.24985 12 52 26.75 -06 48 43.2 20.8 V G96 – Mt. Lemmon Survey MPS 598412
2015 04 10.25396 12 52 26.51 -06 48 41.4 20.5 V G96 – Mt. Lemmon Survey MPS 598412
2015 04 10.25810 12 52 26.31 -06 48 39.2 21.0 V G96 – Mt. Lemmon Survey MPS 598412
2015 04 10.26221 12 52 26.05 -06 48 36.9 20.9 V G96 – Mt. Lemmon Survey MPS 598412
2015 04 11.25468 12 51 31.64 -06 39 55.4 21.0 V G96 – Mt. Lemmon Survey MPS 600525
2015 04 11.26686 12 51 31.02 -06 39 48.8 20.1 V G96 – Mt. Lemmon Survey MPS 600525
2015 04 11.27295 12 51 30.61 -06 39 45.9 20.6 V G96 – Mt. Lemmon Survey MPS 600525
2015 04 15.38719 12 47 48.239 -06 03 48.99 20.7 w F51 – Pan-STARRS 1, Haleakala MPS 600525
2015 04 15.40550 12 47 47.220 -06 03 39.38 20.9 w F51 – Pan-STARRS 1, Haleakala MPS 600525
2015 04 15.41613 12 47 46.637 -06 03 33.85 20.8 w F51 – Pan-STARRS 1, Haleakala MPS 600525
2015 04 15.42675 12 47 46.045 -06 03 28.53 21.0 w F51 – Pan-STARRS 1, Haleakala MPS 600525
2015 04 18.09446 12 45 26.40 -05 40 24.1 21.2 V W84 – Cerro Tololo-DECam MPS 789862
2015 04 18.09764 12 45 26.23 -05 40 22.4   W84 – Cerro Tololo-DECam MPS 789862
2015 04 18.10083 12 45 26.06 -05 40 20.8   W84 – Cerro Tololo-DECam MPS 789862
2015 04 18.10401 12 45 25.89 -05 40 19.2   W84 – Cerro Tololo-DECam MPS 789862
2015 04 18.10718 12 45 25.72 -05 40 17.5   W84 – Cerro Tololo-DECam MPS 789862
2015 04 19.08390 12 44 35.71 -05 31 58.5 21.2 V W84 – Cerro Tololo-DECam MPS 789862
2015 04 19.08707 12 44 35.55 -05 31 56.8   W84 – Cerro Tololo-DECam MPS 789862
2015 04 19.09025 12 44 35.38 -05 31 55.3   W84 – Cerro Tololo-DECam MPS 789862
2015 04 19.09343 12 44 35.21 -05 31 53.6   W84 – Cerro Tololo-DECam MPS 789862
2015 04 19.09661 12 44 35.05 -05 31 52.0   W84 – Cerro Tololo-DECam MPS 789862
2015 05 09.16009 12 31 10.19 -03 05 18.4 20.6 V G96 – Mt. Lemmon Survey MPS 606301
2015 05 09.16532 12 31 09.93 -03 05 18.1 21.1 V G96 – Mt. Lemmon Survey MPS 606301
2015 05 09.17056 12 31 09.74 -03 05 16.6 21.6 V G96 – Mt. Lemmon Survey MPS 606301
2015 05 09.17578 12 31 09.53 -03 05 14.9 20.6 V G96 – Mt. Lemmon Survey MPS 606301
2016 09 11.38350 02 47 54.12 +16 43 52.8 20.4 V G96 – Mt. Lemmon Survey MPS 729754
2016 09 11.39403 02 47 54.27 +16 43 50.3 20.2 V G96 – Mt. Lemmon Survey MPS 729754
2016 09 11.39832 02 47 54.33 +16 43 50.2 20.6 V G96 – Mt. Lemmon Survey MPS 729754
2016 09 11.40685 02 47 54.49 +16 43 47.7 20.4 V G96 – Mt. Lemmon Survey MPS 729754
2016 10 05.24812 02 44 49.84 +14 16 48.5 20.3 G G45 – Space Surveillance Telescope, Atom Site MPS 1609811
2016 10 05.29055 02 44 48.36 +14 16 28.0 20.2 G G45 – Space Surveillance Telescope, Atom Site MPS 1609811
2016 10 05.33347 02 44 46.80 +14 16 05.5 20.3 G G45 – Space Surveillance Telescope, Atom Site MPS 1609811
2016 10 05.40673 02 44 44.17 +14 15 28.2 20.2 G G45 – Space Surveillance Telescope, Atom Site MPS 1609811
2016 10 05.44210 02 44 42.89 +14 15 09.5 19.6 G G45 – Space Surveillance Telescope, Atom Site MPS 1609811
2016 10 05.47210 02 44 41.82 +14 14 54.3 19.7 V G96 – Mt. Lemmon Survey MPS 734065
2016 10 05.47457 02 44 41.72 +14 14 53.2 19.8 V G96 – Mt. Lemmon Survey MPS 734065
2016 10 05.47681 02 44 41.64 +14 14 51.8 19.7 G G45 – Space Surveillance Telescope, Atom Site MPS 1609811
2016 10 05.47709 02 44 41.63 +14 14 51.8 19.7 V G96 – Mt. Lemmon Survey MPS 734065
2016 10 05.47962 02 44 41.54 +14 14 50.2 19.8 V G96 – Mt. Lemmon Survey MPS 734065
2016 10 21.24821 02 32 50.47 +11 44 53.6 20.3 G G45 – Space Surveillance Telescope, Atom Site MPS 1609811
2016 10 21.31133 02 32 46.93 +11 44 16.0 19.3 V G96 – Mt. Lemmon Survey MPS 739472
2016 10 21.31567 02 32 46.68 +11 44 13.7 19.4 V G96 – Mt. Lemmon Survey MPS 739472
2016 10 21.32237 02 32 46.29 +11 44 09.5 19.3 V G96 – Mt. Lemmon Survey MPS 739472
2016 10 21.32676 02 32 46.03 +11 44 06.9 19.1 V G96 – Mt. Lemmon Survey MPS 739472
